Location: Newark
(39.9581°N, 97.2014°W)
Time: 16:21:10
(UTC+00:00)

Tiros 1 - Visible Passes

Search period start: 21 February 2020 00:00
Search period end: 02 March 2020 00:00
Orbit: 631 x 664 km, 48.4° (Epoch: 20 February)

Date Brightness Start Highest point End Pass type
(mag) Time Alt. Az. Time Alt. Az. Time Alt. Az.
21 Feb 9.0 10:33:22 24° NNE 10:33:22 24° NNE 10:35:39 10° NE visible
21 Feb 8.5 12:11:02 13° NW 12:14:26 29° N 12:18:28 10° ENE visible
22 Feb 8.5 10:58:12 29° N 10:58:12 29° N 11:01:52 10° NE visible
22 Feb 8.2 12:36:37 10° NW 12:40:53 36° NNE 12:45:09 10° E visible
23 Feb 10.2 09:45:23 11° NE 09:45:23 11° NE 09:45:36 10° NE visible
23 Feb 8.5 11:23:02 25° NNW 11:24:20 29° N 11:28:22 10° ENE visible
24 Feb 9.6 10:10:14 18° NE 10:10:14 18° NE 10:11:47 10° NE visible
24 Feb 8.3 11:47:53 18° NW 11:50:48 34° NNE 11:55:02 10° E visible
25 Feb 8.8 10:35:06 27° NNE 10:35:06 27° NNE 10:38:15 10° ENE visible
25 Feb 7.7 12:12:45 11° NW 12:17:08 51° NNE 12:21:38 10° E visible
26 Feb 8.3 11:00:00 32° N 11:00:42 34° NNE 11:04:55 10° ENE visible
27 Feb 10.0 09:47:18 14° NE 09:47:18 14° NE 09:48:09 10° ENE visible
27 Feb 7.8 11:24:58 28° NW 11:27:04 49° NNE 11:31:32 10° E visible
28 Feb 9.2 10:12:20 25° NE 10:12:20 25° NE 10:14:48 10° ENE visible
28 Feb 7.1 11:50:00 20° WNW 11:53:14 86° NNE 11:57:51 10° ESE visible
29 Feb 8.0 10:37:26 45° NE 10:37:26 45° NE 10:41:26 10° E visible
29 Feb 7.5 12:15:06 12° WNW 12:19:12 46° SW 12:23:36 10° SSE visible
01 Mar 7.0 11:02:39 68° NW 11:03:11 81° NNE 11:07:48 10° ESE visible
